Find Starlink 36466

NORAD ID: 67358 Int'l Des: 2026-003 Owner: SPXS Country: US Constellation: starlink operational
LEOCIRCULAR

現在のビュー

3D地球を読み込み中...

Starlink 36466について

説明を読み込み中...

次回通過

Passes for default location (London). Set your location on the main map for personalized predictions.

高度履歴

Loading altitude history...

軌道要素

1 67358U 26003AA 26150.33480067 .00014043 00000-0 51875-3 0 9996
2 67358 43.0011 125.6981 0001679 260.3790 99.6872 15.27587287 21312
Epoch: May 30, 2026 • Age: 18 hours

現在のステータス

高度 484.1 km
速度 7.63 km/s
衛星直下点 29.00°N, 11.6°W
打ち上げ日 Jan 9, 2026
運用期間 0.3 years
タイプ internet

技術仕様

分類 Payload
質量 575.00 kg
乾燥質量 530.00 kg
総質量 575.00 kg
長さ 0.30 m
直径 4.10 m
スパン 29.00 m
形状 Box + pan
製造者 SPXS
バスタイプ Starlink V2MO
フェーズステータス In Orbit
所有者/国 SPXS/US

Most Searched